Regional Weather Roundup
Issued by NWS

Home | Current Version | Previous Version | Text Only | Print | Product List | Glossary Off
Versions: 1 2 3 4 5 6 7 8 9 10 11 12 13 14 15 16 17 18 19 20 21 22 23 24 25 26 27 28 29 30 31 32 33 34 35 36 37 38 39 40 41 42 43 44 45 46 47 48 49 50

000
ASUS44 KMEG 180200
RWRTN
TENNESSEE HOURLY STATE WEATHER ROUNDUP
NATIONAL WEATHER SERVICE MEMPHIS TN
900 PM CDT THU APR 17 2014

TNZ002-004-019-021-049-052-054-088>092-180300-
WEST TENNESSEE

CITY           SKY/WX    TMP DP  RH WIND       PRES   REMARKS
MEMPHIS INTL   CLOUDY    63  42  46 S3        30.23R
NWS MEMPHIS      N/A     60 N/A N/A MISG        N/A
JACKSON        MOCLDY    58  38  47 CALM      30.24R
DYERSBURG      PTCLDY    57  37  47 CALM      30.25R
UNION CITY     CLEAR     54  45  71 CALM      30.24R
LEXINGTON      CLEAR     57  37  47 CALM      30.25R
$$

TNZ008-025-027-028-033-062-065-066-180300-
NORTH MIDDLE TENNESSEE

CITY           SKY/WX    TMP DP  RH WIND       PRES   REMARKS
NASHVILLE      CLOUDY    62  36  37 CALM      30.27R
CLARKSVILLE    PTCLDY    57  36  45 SE5       30.26R
CROSSVILLE     MOCLDY    54  34  46 CALM      30.32R
$$

TNZ061-075-076-078-094-096-097-180300-
SOUTH MIDDLE TENNESSEE

CITY           SKY/WX    TMP DP  RH WIND       PRES   REMARKS
TULLAHOMA      CLEAR     59  37  44 SE3       30.29R
WINCHESTER     CLEAR     54  43  66 CALM      30.29R
COLUMBIA       CLEAR     54  46  76 CALM      30.25R
$$

TNZ017-018-042-046-047-180300-
NORTHEAST TENNESSEE

CITY           SKY/WX    TMP DP  RH WIND       PRES   REMARKS
TRI CITIES     PTCLDY    56  20  24 E12       30.37R
ELIZABETHTON   CLEAR     52  23  32 CALM      30.39R
$$

TNZ012-013-036-069-073-074-180300-
CENTRAL EAST TENNESSEE

CITY           SKY/WX    TMP DP  RH WIND       PRES   REMARKS
KNOXVILLE      CLOUDY    56  36  47 CALM      30.30R
OAK RIDGE      PTCLDY    56  37  49 CALM      30.32R
$$

TNZ083-085-099-180300-
SOUTHEAST TENNESSEE

CITY           SKY/WX    TMP DP  RH WIND       PRES   REMARKS
CHATTANOOGA    CLOUDY    61  39  44 SE3       30.31R
$$

SKY/WX REPORTED AS FAIR MEANS FEW OR NO CLOUDS BELOW
12 THOUSAND FEET.




USA.gov is the U.S. government's official web portal to all federal, state and local government web resources and services.